This is the latest recevied weather packets stored in our database for station/object XE3JAR. If no packets are shown the sender has not sent any weather packets the latest 10 day(s).
| Time | Temp. | Humidity | Pressure | Rain* | Wind** | Luminosity | Snow |
|---|---|---|---|---|---|---|---|
| 1778159033 | 28.89° C | 78% | 1014.6 hPa | - | - | - | - |
| 1778158744 | 28.89° C | 79% | 1014.6 hPa | - | - | - | - |
| 1778157808 | 27.78° C | 82% | 1014.6 hPa | - | - | - | - |
| 1778154499 | 27.22° C | 85% | 1014.2 hPa | - | - | - | - |
| 1778152989 | 27.22° C | 85% | 1013.9 hPa | - | - | - | - |
| 1778151581 | 27.22° C | 83% | 1013.6 hPa | - | - | - | - |
| 1778150672 | 27.78° C | 81% | 1013.6 hPa | - | - | - | - |
| 1778149146 | 27.78° C | 81% | 1013.2 hPa | - | - | - | - |
| 1778148247 | 27.78° C | 81% | 1012.9 hPa | - | - | - | - |
| 1778144874 | 27.78° C | 79% | 1012.9 hPa | - | - | - | - |
| 1778142191 | 28.89° C | 76% | 1012.9 hPa | - | - | - | - |
| 1778140681 | 28.89° C | 74% | 1013.2 hPa | - | - | - | - |
| 1778139185 | 28.89° C | 74% | 1013.2 hPa | - | - | - | - |
| 1778138904 | 28.89° C | 74% | 1013.2 hPa | - | - | - | - |
| 1778138300 | 28.89° C | 74% | 1013.2 hPa | - | - | - | - |
| 1778137698 | 28.89° C | 74% | 1013.2 hPa | - | - | - | - |
| 1778136533 | 30° C | 74% | 1013.6 hPa | - | - | - | - |
| 1778135313 | 30° C | 74% | 1013.2 hPa | - | - | - | - |
| 1778134103 | 31.11° C | 75% | 1013.6 hPa | - | - | - | - |
| 1778103531 | 40° C | 55% | 1010.8 hPa | - | - | - | - |
| 1778102355 | 41.11° C | 55% | 1010.8 hPa | - | - | - | - |
| 1778098099 | 46.11° C | 49% | 1011.5 hPa | - | - | - | - |
| 1778095355 | 46.11° C | 49% | 1012.5 hPa | - | - | - | - |
| 1778092934 | 45° C | 50% | 1013.6 hPa | - | - | - | - |
| 1778089504 | 43.89° C | 52% | 1014.2 hPa | - | - | - | - |
* Rain since midnight (hover to see other rain measurements)
** Current wind speed in m/s (hover to see current wind gust speed)